This is the latest recevied weather packets stored in our database for station/object K5NWZ. If no packets are shown the sender has not sent any weather packets the latest 10 day(s).
| Time | Temp. | Humidity | Pressure | Rain* | Wind** | Luminosity | Snow |
|---|---|---|---|---|---|---|---|
| 1777749358 | 19.44° C | 19% | 1028.4 hPa | 0 mm | - | 797 W/m² | - |
| 1777749055 | 20° C | 19% | 1028.6 hPa | 0 mm | - | 798 W/m² | - |
| 1777748753 | 18.89° C | 18% | 1028.6 hPa | 0 mm | - | 798 W/m² | - |
| 1777748450 | 20° C | 19% | 1028.4 hPa | 0 mm | - | 801 W/m² | - |
| 1777748144 | 20° C | 18% | 1028.6 hPa | 0 mm | - | 801 W/m² | - |
| 1777747842 | 18.89° C | 20% | 1028.7 hPa | 0 mm | - | 801 W/m² | - |
| 1777747538 | 18.33° C | 19% | 1028.8 hPa | 0 mm | - | 799 W/m² | - |
| 1777747234 | 18.33° C | 19% | 1029 hPa | 0 mm | - | 798 W/m² | - |
| 1777746930 | 18.89° C | 19% | 1028.8 hPa | 0 mm | - | 797 W/m² | - |
| 1777746626 | 18.33° C | 19% | 1029.1 hPa | 0 mm | - | 795 W/m² | - |
| 1777746321 | 18.33° C | 20% | 1029 hPa | 0 mm | - | 793 W/m² | - |
| 1777746017 | 18.89° C | 20% | 1029.4 hPa | 0 mm | - | 790 W/m² | - |
| 1777745716 | 17.78° C | 20% | 1029.5 hPa | 0 mm | - | 786 W/m² | - |
| 1777745414 | 17.78° C | 19% | 1029.3 hPa | 0 mm | - | 784 W/m² | - |
| 1777745111 | 17.78° C | 20% | 1029.5 hPa | 0 mm | - | 781 W/m² | - |
| 1777744802 | 18.89° C | 19% | 1029.5 hPa | 0 mm | - | 776 W/m² | - |
| 1777744496 | 17.78° C | 20% | 1029.6 hPa | 0 mm | - | 771 W/m² | - |
| 1777744193 | 18.33° C | 20% | 1029.8 hPa | 0 mm | - | 768 W/m² | - |
| 1777743889 | 18.33° C | 19% | 1029.9 hPa | 0 mm | - | 762 W/m² | - |
| 1777743586 | 18.89° C | 19% | 1029.8 hPa | 0 mm | - | 754 W/m² | - |
| 1777743283 | 17.78° C | 19% | 1029.7 hPa | 0 mm | - | 750 W/m² | - |
| 1777742981 | 17.22° C | 20% | 1029.9 hPa | 0 mm | - | 745 W/m² | - |
| 1777742678 | 16.67° C | 20% | 1029.8 hPa | 0 mm | - | 738 W/m² | - |
| 1777742374 | 17.22° C | 19% | 1029.8 hPa | 0 mm | - | 732 W/m² | - |
| 1777742070 | 17.22° C | 20% | 1029.8 hPa | 0 mm | - | 725 W/m² | - |
* Rain latest hour (hover to see other rain measurements)
** Current wind speed in m/s (hover to see current wind gust speed)